Flag for Switzerland Weather past 2 weeks in Liestal, Basel-Land, Switzerland

Now
41 °F

Light rain. Passing clouds.


Feels Like: 41 °F
Forecast: 33 / 55 °F
Wind: 2 mph from North

Location: Bale-Mulhouse

Current Time: Mar 27, 2015 at 5:20:55 AM

Latest Report: Mar 27, 2015 at 4:30 AM


Visibility: N/A

Pressure: 30.01 "Hg

Humidity: 93%

Dew point: 39 °F

Location of LiestalLocation

Historic Weather in Liestal — Graph

°F

Liestal temperature yesterday

Maximum temperature yesterday: 46 °F (at 1:00 PM)
Minimum temperature yesterday: 41 °F (at 12:00 AM)
Average temperature yesterday: 43 °F

Past Weeks' High & Low Weather Summary

 TemperatureHumidityPressure
High64 °F (Mar 17, 3:30 PM)100% (Mar 15, 4:00 AM)30.36 "Hg (Mar 15, 4:00 AM)
Low27 °F (Mar 12, 4:30 AM)28% (Mar 12, 4:30 PM)29.62 "Hg (Mar 25, 6:00 AM)
Average44 °F72%30.05 "Hg
* Reported Mar 12 3:00 AM — Mar 27 3:30 AM, Liestal, Weather by CustomWeather, © 2015

Note: Actual official high and low records may vary slightly from our data, if they occured in-between our weather recording intervals... More about our weather records

Advertising

Liestal weather history for previous 24 hours

 ConditionsComfort  
Time TempWeatherWind HumidityBarometerVisibility
3:30 AM
Fri, Mar 27
41 °FPassing clouds.10 mph87%29.98 "HgN/A
3:00 AM43 °FMostly cloudy.6 mph81%29.98 "HgN/A
2:30 AM43 °FOvercast.8 mph81%29.98 "HgN/A
2:00 AM43 °FMostly cloudy.7 mph81%29.98 "HgN/A
1:30 AM43 °FOvercast.3 mph81%29.98 "HgN/A
1:00 AM43 °FMostly cloudy.1 mph81%29.98 "HgN/A
12:30 AM43 °FMostly cloudy.1 mph81%29.95 "HgN/A
12:00 AM43 °FPassing clouds.3 mph81%29.95 "HgN/A
11:30 PM
Thu, Mar 26
43 °FLight rain. Passing clouds.7 mph81%29.95 "HgN/A
11:00 PM43 °FLight rain. Passing clouds.8 mph81%29.95 "HgN/A
10:00 PM43 °FLight rain. Overcast.6 mph76%29.92 "HgN/A
9:30 PM45 °FOvercast.9 mph71%29.92 "HgN/A
9:00 PM45 °FOvercast.7 mph71%29.92 "HgN/A
8:30 PM45 °FMostly cloudy.6 mph71%29.89 "HgN/A
8:00 PM45 °FOvercast.12 mph71%29.89 "HgN/A
7:30 PM45 °FLight rain. Overcast.7 mph71%29.89 "HgN/A
7:00 PM46 °FPassing clouds.3 mph71%29.86 "HgN/A
6:30 PM46 °FPassing clouds.5 mph66%29.86 "HgN/A
6:00 PM46 °FMore clouds than sun.6 mph66%29.86 "HgN/A
5:30 PM46 °FMore clouds than sun.7 mph66%29.86 "HgN/A
5:00 PM46 °FMore clouds than sun.7 mph71%29.86 "HgN/A
4:30 PM46 °FMore clouds than sun.8 mph71%29.86 "HgN/A
4:00 PM46 °FBroken clouds.9 mph76%29.86 "HgN/A
3:30 PM46 °FPartly sunny.9 mph71%29.86 "HgN/A
3:00 PM46 °FPartly sunny.10 mph71%29.86 "HgN/A
2:30 PM46 °FPartly sunny.12 mph76%29.86 "HgN/A
2:00 PM46 °FPartly sunny.12 mph76%29.86 "HgN/A
1:30 PM46 °FPartly sunny.10 mph76%29.86 "HgN/A
1:00 PM46 °FPartly sunny.9 mph71%29.86 "HgN/A
12:30 PM45 °FPartly sunny.8 mph81%29.86 "HgN/A
12:00 PM45 °FPartly sunny.10 mph81%29.86 "Hg6 mi
11:30 AM45 °FPartly sunny.10 mph81%29.86 "Hg6 mi
11:00 AM43 °FPartly sunny.6 mph87%29.86 "Hg5 mi
10:30 AM43 °FBroken clouds.7 mph87%29.86 "Hg5 mi
10:00 AM43 °FBroken clouds.6 mph87%29.86 "Hg5 mi
9:30 AM43 °FPartly sunny.6 mph87%29.86 "Hg5 mi
9:00 AM41 °FPartly sunny.7 mph93%29.86 "Hg4 mi
8:30 AM41 °FOvercast.7 mph93%29.86 "Hg4 mi
8:00 AM41 °FOvercast.7 mph93%29.86 "Hg4 mi
7:30 AM41 °FOvercast.8 mph93%29.83 "Hg4 mi
7:00 AM41 °FPartly sunny.7 mph93%29.83 "Hg4 mi
6:30 AM41 °FPartly sunny.6 mph93%29.83 "Hg4 mi
6:00 AM41 °FPassing clouds.6 mph93%29.83 "Hg4 mi
5:30 AM41 °FPassing clouds.5 mph93%29.83 "Hg3 mi
5:00 AM41 °FLight rain. Partly cloudy.5 mph93%29.80 "Hg3 mi
Weather by CustomWeather, © 2015

See weather overviewHow to use our weather pages